Location: Kampong Bukit Kuching
(3.2667°N, 101.3333°E)
Time: 22:00:48
(UTC+00:00)

Daily predictions for brighter satellites

Satellite Brightness Start Highest point End
(mag) Time Altitude Azimuth Time Altitude Azimuth Time Altitude Azimuth
CZ-4B R/B 3.7 12:01:41 10° SSE 12:05:29 60° ENE 12:09:08 10° N
SPOT 1/Viking Rocket 4.3 12:01:36 10° SE 12:06:03 29° ENE 12:10:29 10° NNE
Cosmos 1943 3.2 12:01:08 10° S 12:06:48 77° ESE 12:12:28 10° NNE
Cosmos 1825 3.4 12:04:11 10° SSW 12:06:57 33° W 12:09:43 10° NNW
Ariane 3 Deb 2.1 12:03:30 10° W 12:07:01 71° N 12:09:46 15° E
Cosmos 2278 Rocket 2.2 12:01:46 10° N 12:07:20 64° ENE 12:12:54 10° SSE
SL-08 R/B 3.3 12:04:17 10° NNE 12:09:03 69° ESE 12:13:46 10° S
YAOGAN 1 2.6 12:05:13 10° SSE 12:09:24 56° ENE 12:13:33 10° N
Landsat 7 4.0 12:05:42 10° S 12:10:22 75° WSW 12:15:02 10° NNW
ARIANE 3 DEB 4.2 12:14:08 10° SSW 12:15:07 12° S 12:16:05 10° SSE
Ariane V96 H10-3 3.6 12:09:24 10° WSW 12:18:37 60° S 12:20:34 21° ESE
OAO 3 Rocket 3.8 12:14:13 10° WNW 12:18:45 56° SW 12:23:21 10° SE
RESURS DK-1 2.9 12:15:16 10° N 12:18:55 34° ENE 12:22:33 10° SE
USA 267 3.3 12:16:16 10° SE 12:22:51 87° SW 12:29:24 10° NW
Resurs 1-3 3.7 12:20:19 10° SSE 12:24:27 47° ENE 12:28:35 10° N
DELTA-4 R/B 3.7 12:08:06 10° WNW 12:24:31 81° SSW 12:27:30 18° ESE
ARIANE 6 FM1 Upper Stage 4.2 12:20:38 10° NW 12:24:45 40° WSW 12:28:53 10° S
Cosmos 1782 Rocket 4.3 12:26:12 26° NE 12:27:23 30° E 12:31:13 10° SSE
Tiangong 0.7 12:25:28 10° W 12:27:55 20° SW 12:30:21 10° S
ACS3 Solar Sail 2.1 12:21:43 10° S 12:27:58 75° WSW 12:34:20 10° NNW
Helios 1A 3.2 12:27:06 26° NE 12:28:56 43° ESE 12:32:47 10° S
Cosmos 2084 Rocket 3.4 12:26:23 10° NNW 12:30:20 73° WSW 12:34:19 10° SSE
Cosmos 1328 3.9 12:27:44 10° SSE 12:31:20 44° E 12:32:13 36° NE
ARIANE 5 DEB (SYLDA) 2.3 12:25:53 10° W 12:32:16 79° N 12:33:21 39° E
Cosmos 1898 Rocket 3.5 12:37:22 10° NNW 12:42:40 87° WSW 12:47:59 10° S
CBERS 1 LM4 rocket 4.5 12:38:48 10° SSE 12:43:27 51° ENE 12:47:57 12° N
Spelda 30 2.8 12:42:17 10° WSW 12:44:35 43° S 12:44:47 42° SSE
Aureole 1 Rocket 4.0 12:39:15 10° NNW 12:45:43 71° W 12:50:51 10° S
SL-08 ROCKET BODY 4.3 12:40:27 10° S 12:46:21 63° E 12:50:14 22° NNE
Cosmos 1603 3.7 12:42:08 10° SSW 12:47:45 82° WNW 12:51:31 22° NNE
Resurs 01 Rocket 3.9 12:45:06 10° SE 12:45:15 11° SE 12:45:15 11° SE
COSMOS 2455 4.4 12:51:40 10° SSE 12:54:21 18° SE 12:54:21 18° SE
NOSS 3-2 (A) 3.5 12:51:39 10° S 12:55:26 35° SE 12:55:26 35° SE
SJ-6B 3.1 12:52:51 10° S 12:55:30 49° S 12:55:30 49° S
BREEZE M DEB (TANK) 2.8 12:55:37 10° SW 12:57:06 39° W 12:57:06 39° W
Milstar 3 Cent rocket 3.1 12:54:56 10° W 13:01:13 36° NNW 13:02:37 30° N
Cosmos 836 Rocket 4.5 12:57:38 10° SSW 13:02:48 80° WNW 13:04:27 44° N
Lacrosse 5 3.8 12:58:31 10° WNW 13:02:58 30° WSW 13:07:24 10° S
ARIANE 5 DEB (SYLDA) 3.9 12:51:33 10° W 13:04:10 69° N 13:05:21 55° NE
Cosmos 1300 Rocket 3.6 13:06:00 62° NW 13:06:35 74° W 13:10:56 10° S
Cosmos 1378 Rocket 3.5 13:02:26 10° S 13:06:43 76° W 13:06:48 76° WNW
ARIANE 5 R/B 2.8 13:04:24 10° W 13:06:04 23° W 13:06:04 23° W
Cosmos 2208 Rocket 4.5 13:07:13 10° SSW 13:12:22 58° WNW 13:14:05 38° NNW
USA 32 4.4 13:07:16 10° SSW 13:12:24 60° W 13:15:06 27° NNW
ARIANE 5 R/B 2.8 13:13:49 10° W 13:16:53 68° S 13:17:42 58° SE
USA 281 3.6 13:24:57 47° SE 13:24:57 47° SE 13:30:12 10° S
Iridium 4 Rocket 4.0 13:20:33 10° S 13:24:13 49° SSW 13:24:13 49° SSW
ARIANE 44LP R/B 3.8 13:14:44 10° W 13:27:50 75° WSW 13:27:50 75° WSW
CENTAUR R/B 3.4 13:27:03 10° SW 13:31:03 29° WNW 13:31:36 28° NW
Ariane H10 4.0 13:28:27 10° WSW 13:35:26 26° SSW 13:35:28 26° SSW
ARIANE 5 R/B 3.2 13:26:38 10° W 13:37:20 57° WSW 13:37:20 57° WSW
SEDSat Delta rocket 4.5 13:42:40 10° WSW 13:47:17 54° WSW 13:47:17 54° WSW
Ariane H10-3 4.4 13:47:12 10° WSW 14:06:30 58° SSW 14:06:30 58° SSW
Ariane H10+ 4.5 14:40:33 10° WSW 14:50:59 38° SW 14:50:59 38° SW
Atlas Centaur 2 3.5 20:40:32 54° ESE 20:40:32 54° ESE 20:46:44 10° ESE
SL-16 R/B 3.9 20:43:22 10° SSE 20:46:23 31° SSE 20:46:23 31° SSE
ATLAS 5 CENTAUR R/B 3.8 21:05:51 29° NE 21:07:48 34° ENE 21:14:07 10° SE
BLOCK-DM UPPERSTAGE 4.4 21:10:51 48° SE 21:10:51 48° SE 21:16:04 10° E
CZ-4C R/B 3.5 21:08:41 45° N 21:11:40 67° ENE 21:20:38 10° SSE
Cosmos 371 Rocket 4.3 21:21:37 10° S 21:26:10 44° ESE 21:30:45 10° NNE
Ariane H10 3.4 21:32:36 31° S 21:32:54 32° SSE 21:39:12 10° ESE
Cosmos 1816 Rocket 4.4 21:33:10 58° NNW 21:34:29 81° W 21:40:51 10° S
Cosmos 1980 3.9 21:36:16 42° N 21:38:07 67° ENE 21:43:45 10° SSE
Cosmos 1844 Rocket 3.7 21:35:20 10° S 21:40:43 46° ESE 21:46:04 10° NNE
Meteor 1-23 Rocket 4.5 21:40:03 22° N 21:43:48 68° E 21:49:29 10° SSE
IRAS Rocket 4.1 21:39:14 10° NNE 21:44:45 86° WNW 21:50:15 10° SSW
Cosmos 2227 4.1 21:39:53 10° SSW 21:45:31 90° WNW 21:51:10 10° NNE
Cosmos 1666 Rocket 3.4 21:41:34 10° S 21:45:56 85° E 21:46:15 76° NNE
ARGOS 3.5 21:51:50 43° WSW 21:51:50 43° WSW 21:55:58 10° SSW
SL-12 R/B(2) 3.9 21:44:33 10° SW 21:51:37 56° WNW 21:59:12 10° N
NOSS 0 Rocket 4.1 21:52:11 46° WNW 21:53:09 51° WSW 21:59:09 10° S
Meteor 1-13 Rocket 4.5 21:55:24 44° W 21:55:29 44° W 22:00:48 10° SSW
COSMOS 2428 4.1 21:57:00 22° SW 21:57:00 22° SW 22:00:04 10° SSW
Ariane H10+ 0.8 22:00:42 75° SSE 22:00:42 75° SSE 22:05:22 10° E
Cosmos 1300 4.1 21:58:00 10° SSE 22:01:02 33° E 22:04:02 10° NNE
Cosmos 1470 Rocket 4.2 21:56:50 10° S 22:01:12 57° E 22:05:32 10° NNE
ARIANE 44P R/B 2.1 22:04:10 58° WSW 22:04:42 82° S 22:10:52 10° E
Ariane 42P Rocket 3.8 22:06:34 13° SE 22:06:34 13° SE 22:06:54 10° SE
SL-4 R/B 1.3 22:08:55 66° NNW 22:08:55 66° NNW 22:11:59 10° NNE
ADEOS Rocket 4.0 22:02:06 10° NNE 22:08:46 60° ESE 22:16:06 10° S
Cosmos 1484 Rocket 4.4 22:11:41 17° SW 22:11:41 17° SW 22:12:42 10° SSW
GMS 1 Rocket B 4.4 22:08:32 45° NW 22:09:49 86° NE 22:14:46 10° ESE
Cosmos 1891 Rocket 4.4 22:04:51 10° SSW 22:10:44 57° W 22:16:38 10° N
SL-08 RB Rocket 4.4 22:15:13 30° W 22:15:13 30° W 22:18:36 10° SW
JB-3 4.4 22:10:57 10° S 22:14:44 50° W 22:16:03 34° NW
Meteor 2-10 Rocket 4.0 22:17:14 10° S 22:22:11 61° E 22:27:16 10° NNE
ARIANE 5 R/B 3.4 22:17:55 10° NNE 22:22:46 52° ESE 22:27:35 10° S
Cosmos 304 Rocket 4.2 22:18:44 10° SW 22:23:04 35° WNW 22:27:22 10° NNW
CZ-3 R/B 3.4 22:02:07 10° WSW 22:23:55 40° NW 22:30:55 10° NNE
GPS 2-15 Rocket1 4.3 22:23:10 21° NW 22:24:08 23° NNW 22:27:47 10° NE
Cosmos 1844 3.6 22:21:16 10° SSW 22:26:48 64° WNW 22:32:23 10° N
Atlas Centaur 2 4.1 22:22:37 16° W 22:27:50 31° SSW 22:34:54 10° SSE
Ariane H10+ 3.3 22:25:14 19° W 22:28:26 83° S 22:43:23 10° E
Cosmos 1932 4.5 22:22:27 10° NNW 22:28:48 82° WSW 22:35:16 10° SSE
USA 290 2.4 22:27:25 10° S 22:30:32 71° ESE 22:33:39 10° NNE
ARIANE 5 R/B 4.1 22:28:34 14° WSW 22:31:30 52° S 22:47:00 10° E
Cosmos 2237 Rocket 2.9 22:29:03 19° NW 22:32:10 33° WSW 22:37:09 10° SSW
USA 81 4.4 22:28:54 10° NNW 22:33:51 43° W 22:38:49 10° SSW
Ariane H10+ 4.1 22:12:16 10° W 22:39:42 79° N 22:43:57 10° E
Stardust Del rocket 3.1 22:38:23 17° NW 22:40:48 49° NNE 22:43:15 10° E
USA 276 1.5 22:40:29 11° SW 22:42:38 40° NW 22:44:41 10° NNE
DELTA 2 R/B (1) 4.4 22:37:18 10° NNW 22:42:39 47° NE 22:47:58 10° ESE
Cosmos 405 Rocket 2.9 22:44:38 10° SSW 22:47:44 35° W 22:50:54 10° NNW
Cosmos 1486 Rocket 4.1 22:43:40 10° S 22:48:52 80° ESE 22:54:04 10° NNE
ATLAS 5 CENTAUR R/B 3.7 22:46:11 12° WNW 22:51:06 28° WSW 22:57:05 10° S
Cosmos 2228 Rocket 3.1 22:47:43 10° NNW 22:52:07 64° W 22:56:31 10° S
COSMO-SKYMED 1 2.7 22:50:59 10° SSE 22:55:20 81° ENE 22:59:39 10° N
Cosmos 1758 3.1 22:52:52 10° SSW 22:56:33 61° W 23:00:14 10° N
IRS-P3 4.1 22:54:42 10° N 23:00:00 79° WNW 23:05:20 10° SSW
Okean 1-7 3.2 22:58:22 10° N 23:02:30 76° E 23:06:38 10° S
IRS-1C 4.3 22:58:26 10° N 23:03:31 48° WNW 23:08:37 10° SSW
Cosmos 841 Rocket 4.0 23:02:12 10° NW 23:06:54 37° WSW 23:11:36 10° SSW
